Bangkok (Don Mueang), Thailand

4:16 AM +07 on November 23, 2017 (GMT +0700)
Bangkok International

Weather History for VTBD - September, 2013

Change the Weather History Date:

Sunday, September 8, 2013

  Actual Average Record
Temperature  
Mean Temperature 82 °F -  
Max Temperature 87 °F 90 °F 95 °F (1996)
Min Temperature 78 °F 76 °F 75 °F (1999)
Cooling Degree Days 18    
Growing Degree Days 32 (Base 50)    
Moisture  
Dew Point 76 °F    
Average Humidity 81    
Maximum Humidity 94    
Minimum Humidity 61    
Precipitation  
Precipitation 0.00 in 0.32 in - ()
Sea Level Pressure  
Sea Level Pressure 29.83 in    
Wind  
Wind Speed 3 mph ()    
Max Wind Speed 9 mph    
Max Gust Speed -    
Visibility 5.8 miles    
Events Rain    
Averages and records for this station are not official NWS values.
T = Trace of Precipitation, MM = Missing Value Source: Averaged Metar Reports

Daily Weather History Graph

Daily Weather History Graph

Search for Another Location

Airport or City:

Trip Planner

Search our weather history database for the weather conditions in past years. The results will help you decide how hot, cold, wet, or windy it might be!

Date:

Astronomy

Sep. 08, 2013 Rise Set
Actual Time 6:06 AM +07 6:24 PM +07
Civil Twilight 5:44 AM +07 6:45 PM +07
Nautical Twilight 5:19 AM +07 7:10 PM +07
Astronomical Twilight 4:54 AM +07 7:35 PM +07
Moon 8:14 AM +07 (9/8) 8:19 PM +07 (9/8)
Length of Visible Light 13h 00m
Length of Day
12h 17m
Waxing Crescent, 8% of the Moon is Illuminated
Sep 8
Waxing Crescent
Sep 13
First Quarter
Sep 19
Full
Sep 27
Last Quarter
Oct 5
New

Hourly Weather History & Observations

Time (+07) Temp. Heat Index Dew Point Humidity Pressure Visibility Wind Dir Wind Speed Gust Speed Precip Events Conditions
12:00 AM 78.8 °F - 77.0 °F 94% 29.86 in 5.6 mi East 2.3 mph - N/A   Mostly Cloudy
12:30 AM 78.8 °F - 77.0 °F 94% 29.86 in 5.6 mi Calm Calm - N/A   Mostly Cloudy
1:00 AM 79 °F - 76 °F 89% 29.85 in 6 mi Calm Calm - -   Mist
1:00 AM 78.8 °F - 77.0 °F 94% 29.83 in 5.6 mi Calm Calm - N/A   Mostly Cloudy
1:30 AM 78.8 °F - 77.0 °F 94% 29.83 in 5.6 mi Calm Calm - N/A   Mostly Cloudy
2:00 AM 78.8 °F - 77.0 °F 94% 29.83 in 5.6 mi ESE 2.3 mph - N/A   Mostly Cloudy
2:30 AM 78.8 °F - 77.0 °F 94% 29.83 in 5.6 mi SSE 2.3 mph - N/A   Mostly Cloudy
3:00 AM 78.8 °F - 77.0 °F 94% 29.83 in 5.6 mi SSE 3.5 mph - N/A   Mostly Cloudy
3:30 AM 78.8 °F - 75.2 °F 89% 29.83 in 5.6 mi Calm Calm - N/A   Mostly Cloudy
4:00 AM 78.8 °F - 75.2 °F 89% 29.80 in 5.6 mi Calm Calm - N/A   Mostly Cloudy
4:30 AM 78.8 °F - 75.2 °F 89% 29.80 in 5.6 mi Calm Calm - N/A   Mostly Cloudy
5:00 AM 78.8 °F - 75.2 °F 89% 29.83 in 5.6 mi SSE 2.3 mph - N/A   Mostly Cloudy
5:30 AM 78.8 °F - 75.2 °F 89% 29.83 in 5.6 mi SSE 3.5 mph - N/A   Mostly Cloudy
6:00 AM 78.8 °F - 75.2 °F 89% 29.83 in 5.6 mi SSE 2.3 mph - N/A   Mostly Cloudy
6:30 AM 78.8 °F - 75.2 °F 89% 29.83 in 5.6 mi Calm Calm - N/A   Mostly Cloudy
7:00 AM 79 °F - 76 °F 87% 29.83 in 6 mi SSE 2.3 mph - -   Mist
7:00 AM 78.8 °F - 75.2 °F 89% 29.83 in 5.6 mi SSE 2.3 mph - N/A   Mostly Cloudy
7:30 AM 78.8 °F - 75.2 °F 89% 29.83 in 5.6 mi East 2.3 mph - N/A   Mostly Cloudy
8:00 AM 78.8 °F - 75.2 °F 89% 29.83 in 5.6 mi Calm Calm - N/A   Mostly Cloudy
8:30 AM 80.6 °F 87.1 °F 77.0 °F 89% 29.83 in 5.6 mi East 4.6 mph - N/A   Mostly Cloudy
9:00 AM 82.4 °F 90.9 °F 77.0 °F 84% 29.83 in 5.6 mi Calm Calm - N/A   Mostly Cloudy
9:30 AM 84.2 °F 94.1 °F 77.0 °F 79% 29.83 in 5.6 mi NNE 3.5 mph - N/A   Mostly Cloudy
10:00 AM 84.2 °F 92.3 °F 75.2 °F 74% 29.86 in 5.6 mi NNW 5.8 mph - N/A   Mostly Cloudy
10:30 AM 84.2 °F 92.3 °F 75.2 °F 74% 29.86 in 5.6 mi NNE 4.6 mph - N/A   Mostly Cloudy
11:00 AM 84.2 °F 92.3 °F 75.2 °F 74% 29.86 in 5.6 mi NNE 5.8 mph - N/A   Mostly Cloudy
11:30 AM 86.0 °F 95.1 °F 75.2 °F 70% 29.86 in 5.6 mi North 4.6 mph - N/A   Mostly Cloudy
12:00 PM 86.0 °F 95.1 °F 75.2 °F 70% 29.86 in 5.6 mi North 9.2 mph - N/A   Mostly Cloudy
12:30 PM 86.0 °F 95.1 °F 75.2 °F 70% 29.83 in 6.2 mi North 2.3 mph - N/A   Mostly Cloudy
1:00 PM 86 °F - 74 °F 61% 29.82 in 6 mi NNW 6.9 mph - -   Scattered Clouds
1:00 PM 86.0 °F 95.1 °F 75.2 °F 70% 29.80 in 6.2 mi NNW 6.9 mph - N/A   Mostly Cloudy
1:30 PM 86.0 °F 95.1 °F 75.2 °F 70% 29.80 in 6.2 mi North 6.9 mph - N/A   Mostly Cloudy
2:00 PM 87.8 °F 97.6 °F 75.2 °F 66% 29.80 in 6.2 mi North 5.8 mph - N/A   Mostly Cloudy
2:30 PM 87.8 °F 97.6 °F 75.2 °F 66% 29.77 in 6.2 mi NNE 3.5 mph - N/A   Mostly Cloudy
3:00 PM 86.0 °F 93.4 °F 73.4 °F 66% 29.77 in 6.2 mi North 3.5 mph - N/A   Mostly Cloudy
3:30 PM 86.0 °F 93.4 °F 73.4 °F 66% 29.77 in 6.2 mi NNE 5.8 mph - N/A   Mostly Cloudy
4:00 PM 86.0 °F 95.1 °F 75.2 °F 70% 29.74 in 6.2 mi SSE 6.9 mph - N/A   Mostly Cloudy
4:30 PM 84.2 °F 92.3 °F 75.2 °F 74% 29.77 in 5.6 mi SSE 3.5 mph - N/A Rain Light Rain
5:00 PM 84.2 °F 92.3 °F 75.2 °F 74% 29.77 in 5.6 mi SSE 3.5 mph - N/A Rain Light Rain
5:30 PM 84.2 °F 92.3 °F 75.2 °F 74% 29.77 in 5.6 mi SSE 4.6 mph - N/A Rain Light Rain
6:00 PM 84.2 °F 92.3 °F 75.2 °F 74% 29.80 in 5.6 mi SSE 4.6 mph - N/A Rain Light Rain
6:30 PM 84.2 °F 92.3 °F 75.2 °F 74% 29.80 in 5.6 mi East 3.5 mph - N/A Rain Light Rain
7:00 PM 82 °F - 77 °F 81% 29.81 in 6 mi ESE 3.5 mph - - Rain Light Rain
7:00 PM 82.4 °F 90.9 °F 77.0 °F 84% 29.80 in 5.6 mi ESE 3.5 mph - N/A Rain Light Rain
7:30 PM 82.4 °F 90.9 °F 77.0 °F 84% 29.83 in 6.2 mi SSE 3.5 mph - N/A   Mostly Cloudy
8:00 PM 82.4 °F 90.9 °F 77.0 °F 84% 29.83 in 6.2 mi South 3.5 mph - N/A   Mostly Cloudy
8:30 PM 80.6 °F 87.1 °F 77.0 °F 89% 29.83 in 6.2 mi West 9.2 mph - N/A   Mostly Cloudy
9:00 PM 80.6 °F 86.2 °F 75.2 °F 84% 29.86 in 6.2 mi West 8.1 mph - N/A   Mostly Cloudy
9:30 PM 80.6 °F 85.4 °F 73.4 °F 79% 29.89 in 6.2 mi WSW 4.6 mph - N/A   Mostly Cloudy
10:00 PM 80.6 °F 86.2 °F 75.2 °F 84% 29.89 in 6.2 mi SSW 3.5 mph - N/A Rain Light Rain
10:30 PM 78.8 °F - 75.2 °F 89% 29.89 in 6.2 mi West 4.6 mph - N/A Rain Light Rain
11:00 PM 78.8 °F - 73.4 °F 83% 29.89 in 6.2 mi West 2.3 mph - N/A   Mostly Cloudy
11:30 PM 78.8 °F - 73.4 °F 83% 29.89 in 6.2 mi SSW 2.3 mph - N/A   Mostly Cloudy